Simultaneous Nadir Overpasses (SNOs) Predictions

Prediction of SNOs between GOES-14 and AQUA Satellite Orbit:

Table of predicted SNOs for the next 14.0 days since TLE Epoch: 1/29/2021
Index Date Time (GOES-14) GOES-14 Lat,Lon AQUA Lat,Lon Distance(km) Time Diff (sec)
1 01/31/2021 08:17:23 -0.05,-104.37 -0.93,-100.28 465.62 80
2 01/31/2021 20:38:46 0.04,-104.11 -0.26,-105.45 152.95 80
3 02/02/2021 20:23:56 0.05,-104.11 0.41,-102.50 183.33 80
4 02/03/2021 08:45:12 -0.04,-104.37 0.67,-107.66 375.13 80
5 02/05/2021 08:33:02 -0.04,-104.37 0.00,-104.72 38.84 80
6 02/07/2021 08:23:31 -0.04,-104.37 -0.61,-101.76 297.48 80
7 02/07/2021 20:44:54 0.03,-104.12 -0.56,-106.93 319.65 80
8 02/09/2021 20:30:03 0.02,-104.12 0.06,-103.98 16.48 80
9 02/11/2021 20:17:52 0.02,-104.12 0.69,-101.02 352.94 80
10 02/12/2021 08:39:09 -0.02,-104.37 0.35,-106.19 207.00 80
